�������l�o���
Date,Time,MP-1(��Sv/h),MP-2(��Sv/h),MP-3(��Sv/h),MP-4(��Sv/h),MP-5(��Sv/h),MP-6(��Sv/h),MP-7(��Sv/h),MP-8(��Sv/h),����,����(m/s),���J
2018/08/12,00:00,0.828,1.213,0.852,1.515,1.085,0.469,0.822,0.777,�k,0.9,��
2018/08/12,00:10,0.828,1.214,0.853,1.515,1.085,0.470,0.820,0.778,���k��,1.2,��
2018/08/12,00:20,0.827,1.213,0.853,1.518,1.085,0.468,0.823,0.777,�k��,1.9,�L
2018/08/12,00:30,0.828,1.213,0.851,1.517,1.084,0.470,0.823,0.778,���쓌,0.6,�L
2018/08/12,00:40,0.828,1.210,0.851,1.515,1.083,0.470,0.822,0.780,�k��,0.9,�L
2018/08/12,00:50,0.828,1.212,0.851,1.515,1.083,0.468,0.822,0.777,�쐼,0.6,�L
2018/08/12,01:00,0.826,1.209,0.855,1.515,1.081,0.470,0.821,0.779,�k��,0.9,�L
2018/08/12,01:10,0.827,1.211,0.852,1.512,1.081,0.470,0.820,0.779,-,CALM,�L
2018/08/12,01:20,0.826,1.209,0.852,1.515,1.081,0.468,0.821,0.778,��,0.9,�L
2018/08/12,01:30,0.828,1.210,0.854,1.516,1.082,0.469,0.822,0.777,���k��,0.9,��
2018/08/12,01:40,0.828,1.211,0.852,1.516,1.084,0.467,0.821,0.778,���쐼,0.9,�L
2018/08/12,01:50,0.827,1.210,0.850,1.518,1.083,0.468,0.821,0.778,���k��,0.6,��
2018/08/12,02:00,0.828,1.209,0.851,1.514,1.084,0.468,0.821,0.777,���k��,0.8,��
2018/08/12,02:10,0.828,1.209,0.851,1.517,1.082,0.468,0.822,0.777,-,CALM,��
2018/08/12,02:20,0.828,1.211,0.851,1.518,1.082,0.469,0.822,0.778,��쓌,1.1,��
2018/08/12,02:30,0.828,1.212,0.851,1.515,1.082,0.468,0.822,0.778,�쐼,0.6,��
2018/08/12,02:40,0.826,1.209,0.849,1.514,1.084,0.467,0.821,0.781,-,CALM,��
2018/08/12,02:50,0.827,1.212,0.852,1.513,1.084,0.468,0.821,0.777,���k��,0.6,��
2018/08/12,03:00,0.829,1.211,0.852,1.514,1.084,0.468,0.821,0.780,���k��,1.2,��
2018/08/12,03:10,0.829,1.210,0.851,1.517,1.082,0.468,0.822,0.778,���k��,0.9,��
2018/08/12,03:20,0.828,1.210,0.852,1.516,1.084,0.469,0.823,0.777,�k��,1.2,��
2018/08/12,03:30,0.827,1.210,0.852,1.515,1.083,0.468,0.822,0.779,�k��,0.6,��
2018/08/12,03:40,0.828,1.210,0.851,1.514,1.081,0.468,0.823,0.777,-,CALM,��
2018/08/12,03:50,0.828,1.209,0.851,1.516,1.082,0.468,0.822,0.777,-,CALM,��
2018/08/12,04:00,0.825,1.209,0.853,1.514,1.081,0.468,0.823,0.777,�k,1.1,��
2018/08/12,04:10,0.826,1.211,0.853,1.516,1.083,0.468,0.821,0.777,�k��,0.8,��
2018/08/12,04:20,0.828,1.213,0.851,1.515,1.082,0.467,0.822,0.777,�k�k��,0.6,��
2018/08/12,04:30,0.828,1.215,0.852,1.514,1.083,0.469,0.821,0.779,�k�k��,1.1,��
2018/08/12,04:40,0.828,1.211,0.851,1.515,1.081,0.469,0.821,0.777,���k��,0.9,��
2018/08/12,04:50,0.828,1.211,0.851,1.512,1.081,0.469,0.821,0.780,�k��,0.9,��
2018/08/12,05:00,0.827,1.212,0.850,1.515,1.081,0.470,0.822,0.779,���k��,0.9,��
2018/08/12,05:10,0.829,1.210,0.851,1.514,1.082,0.469,0.821,0.779,���k��,0.9,��
2018/08/12,05:20,0.827,1.209,0.852,1.517,1.084,0.468,0.820,0.779,���k��,0.9,�L
2018/08/12,05:30,0.828,1.209,0.852,1.514,1.083,0.469,0.822,0.779,�k��,1.4,�L
2018/08/12,05:40,0.827,1.211,0.852,1.517,1.083,0.469,0.820,0.778,�k�k��,1.5,�L
2018/08/12,05:50,0.828,1.211,0.850,1.517,1.082,0.468,0.821,0.778,�k��,1.9,�L
2018/08/12,06:00,0.824,1.207,0.850,1.515,1.082,0.469,0.821,0.777,�k�k��,1.5,�L
2018/08/12,06:10,0.827,1.206,0.853,1.514,1.080,0.469,0.819,0.778,��,1.7,�L
2018/08/12,06:20,0.823,1.204,0.851,1.510,1.075,0.468,0.816,0.778,��,0.6,�L
2018/08/12,06:30,0.823,1.194,0.848,1.509,1.074,0.466,0.817,0.777,��,0.9,�L
2018/08/12,06:40,0.822,1.193,0.847,1.510,1.073,0.468,0.815,0.775,��,0.6,�L
2018/08/12,06:50,0.823,1.193,0.845,1.505,1.070,0.467,0.815,0.774,��쓌,1.1,�L
2018/08/12,07:00,0.822,1.190,0.843,1.504,1.072,0.465,0.813,0.773,���쓌,0.6,�L
2018/08/12,07:10,0.818,1.191,0.845,1.507,1.069,0.467,0.815,0.773,�쓌,1.7,�L
2018/08/12,07:20,0.819,1.189,0.844,1.507,1.067,0.466,0.813,0.773,���쓌,1.9,��
2018/08/12,07:30,0.819,1.190,0.843,1.503,1.069,0.464,0.813,0.772,�쓌,1.5,��
2018/08/12,07:40,0.821,1.187,0.845,1.502,1.069,0.466,0.814,0.769,�쓌,1.7,��
2018/08/12,07:50,0.818,1.187,0.844,1.505,1.068,0.463,0.813,0.771,�쓌,2.6,��
2018/08/12,08:00,0.819,1.189,0.840,1.507,1.066,0.464,0.810,0.771,�쓌,2.2,��
2018/08/12,08:10,0.820,1.188,0.843,1.502,1.068,0.461,0.812,0.772,�쓌,2.5,��
2018/08/12,08:20,0.819,1.187,0.841,1.503,1.069,0.462,0.812,0.770,�쓌,1.7,��
2018/08/12,08:30,0.820,1.187,0.841,1.501,1.067,0.463,0.810,0.771,�쓌,1.9,��
2018/08/12,08:40,0.820,1.186,0.841,1.506,1.066,0.461,0.811,0.769,�쓌,1.5,��
2018/08/12,08:50,0.819,1.188,0.842,1.503,1.062,0.461,0.811,0.769,�쓌,1.9,��
2018/08/12,09:00,0.818,1.187,0.842,1.505,1.064,0.462,0.810,0.768,�쓌,1.9,�L
2018/08/12,09:10,0.818,1.187,0.842,1.500,1.066,0.461,0.810,0.771,���쓌,2.0,��
2018/08/12,09:20,0.818,1.190,0.841,1.506,1.066,0.462,0.811,0.770,���쓌,2.3,��
2018/08/12,09:30,0.820,1.186,0.843,1.503,1.066,0.462,0.812,0.768,���쓌,2.0,��
2018/08/12,09:40,0.819,1.188,0.842,1.502,1.066,0.461,0.813,0.769,���쓌,2.6,��
2018/08/12,09:50,0.821,1.191,0.843,1.503,1.066,0.462,0.811,0.770,���쓌,2.3,��
2018/08/12,10:00,0.822,1.190,0.843,1.502,1.066,0.463,0.812,0.767,�쓌,3.1,��
2018/08/12,10:10,0.819,1.194,0.843,1.503,1.068,0.463,0.813,0.769,�쓌,2.6,��
2018/08/12,10:20,0.817,1.191,0.842,1.502,1.070,0.462,0.814,0.770,�쓌,2.9,��
2018/08/12,10:30,0.819,1.191,0.842,1.503,1.071,0.462,0.813,0.769,�쓌,2.9,��
2018/08/12,10:40,0.820,1.194,0.842,1.504,1.070,0.462,0.812,0.770,���쓌,2.8,��
2018/08/12,10:50,0.819,1.195,0.843,1.502,1.071,0.462,0.813,0.770,��,3.2,��
2018/08/12,11:00,0.822,1.198,0.843,1.505,1.073,0.463,0.815,0.770,��,2.8,��
2018/08/12,11:10,0.822,1.197,0.844,1.503,1.070,0.463,0.815,0.771,���쓌,2.8,��
2018/08/12,11:20,0.821,1.199,0.843,1.504,1.072,0.463,0.816,0.771,�쓌,3.8,��
2018/08/12,11:30,0.822,1.198,0.843,1.505,1.074,0.464,0.815,0.771,���쓌,3.4,��
2018/08/12,11:40,0.822,1.199,0.844,1.506,1.074,0.462,0.816,0.772,��,2.9,��
2018/08/12,11:50,0.821,1.200,0.845,1.505,1.074,0.464,0.817,0.771,���쓌,3.2,��
2018/08/12,12:00,0.824,1.199,0.847,1.505,1.074,0.464,0.817,0.773,�쓌,3.4,��
2018/08/12,12:10,0.821,1.201,0.846,1.506,1.074,0.464,0.817,0.772,�쓌,3.3,��
2018/08/12,12:20,0.823,1.203,0.846,1.504,1.077,0.464,0.817,0.773,�쓌,4.2,��
2018/08/12,12:30,0.824,1.203,0.849,1.509,1.077,0.465,0.818,0.773,���쓌,3.4,��
2018/08/12,12:40,0.822,1.201,0.846,1.509,1.079,0.465,0.819,0.773,���쓌,3.7,��
2018/08/12,12:50,0.824,1.199,0.847,1.509,1.079,0.466,0.819,0.773,���쓌,3.7,��
2018/08/12,13:00,0.824,1.203,0.849,1.509,1.078,0.465,0.818,0.772,���쓌,3.7,��
2018/08/12,13:10,0.824,1.203,0.848,1.508,1.081,0.466,0.818,0.774,���쓌,3.7,��
2018/08/12,13:20,0.826,1.204,0.848,1.507,1.081,0.465,0.821,0.774,�쓌,5.0,��
2018/08/12,13:30,0.826,1.206,0.848,1.509,1.079,0.465,0.819,0.775,���쓌,4.9,��
2018/08/12,13:40,0.825,1.210,0.849,1.508,1.081,0.467,0.819,0.776,�쓌,4.9,��
2018/08/12,13:50,0.826,1.204,0.848,1.515,1.083,0.467,0.819,0.773,���쓌,4.9,��
2018/08/12,14:00,0.827,1.211,0.848,1.514,1.081,0.466,0.817,0.775,�쓌,4.8,��
2018/08/12,14:10,0.827,1.207,0.848,1.512,1.083,0.466,0.820,0.777,���쓌,3.7,��
2018/08/12,14:20,0.828,1.209,0.849,1.513,1.083,0.466,0.819,0.775,���쓌,4.4,��
2018/08/12,14:30,0.828,1.208,0.850,1.513,1.080,0.466,0.819,0.774,���쓌,3.7,��
2018/08/12,14:40,0.827,1.208,0.848,1.512,1.081,0.468,0.819,0.773,�쓌,4.5,��
2018/08/12,14:50,0.825,1.208,0.847,1.512,1.083,0.466,0.819,0.775,�쓌,4.9,��
2018/08/12,15:00,0.825,1.211,0.847,1.511,1.082,0.468,0.818,0.774,���쓌,4.2,��
2018/08/12,15:10,0.825,1.208,0.846,1.511,1.081,0.468,0.820,0.775,�쓌,4.0,��
2018/08/12,15:20,0.825,1.210,0.849,1.513,1.084,0.467,0.818,0.773,���쓌,4.3,��
2018/08/12,15:30,0.828,1.209,0.850,1.513,1.082,0.465,0.819,0.774,���쓌,4.0,��
2018/08/12,15:40,0.828,1.210,0.849,1.514,1.083,0.466,0.818,0.772,���쓌,4.3,��
2018/08/12,15:50,0.828,1.208,0.849,1.512,1.083,0.466,0.819,0.775,���쓌,4.9,��
2018/08/12,16:00,0.828,1.210,0.851,1.515,1.082,0.465,0.819,0.776,���쓌,4.6,��
2018/08/12,16:10,0.828,1.207,0.851,1.516,1.085,0.467,0.819,0.773,���쓌,4.0,��
2018/08/12,16:20,0.828,1.209,0.847,1.514,1.082,0.466,0.820,0.774,�쓌,4.9,��
2018/08/12,16:30,0.828,1.209,0.849,1.515,1.085,0.467,0.819,0.775,�쓌,4.2,��
2018/08/12,16:40,0.829,1.209,0.850,1.515,1.083,0.466,0.819,0.775,�쓌,3.8,��
2018/08/12,16:50,0.829,1.208,0.849,1.515,1.083,0.467,0.819,0.773,�쓌,4.0,��
2018/08/12,17:00,0.829,1.208,0.849,1.514,1.083,0.467,0.819,0.776,�쓌,4.3,��
2018/08/12,17:10,0.829,1.209,0.849,1.513,1.087,0.467,0.819,0.777,�쓌,4.7,��
2018/08/12,17:20,0.828,1.209,0.850,1.514,1.085,0.468,0.820,0.775,�쓌,4.5,��
2018/08/12,17:30,0.827,1.208,0.852,1.514,1.086,0.467,0.821,0.775,�쓌,5.1,��
2018/08/12,17:40,0.828,1.209,0.851,1.513,1.085,0.468,0.819,0.774,�쓌,5.0,��
2018/08/12,17:50,0.828,1.210,0.851,1.515,1.085,0.468,0.819,0.776,�쓌,4.9,��
2018/08/12,18:00,0.829,1.209,0.851,1.513,1.085,0.468,0.821,0.777,��쓌,4.9,��
2018/08/12,18:10,0.827,1.208,0.852,1.514,1.087,0.468,0.820,0.776,��쓌,3.8,��
2018/08/12,18:20,0.828,1.210,0.854,1.514,1.087,0.469,0.818,0.776,��쓌,4.5,��
2018/08/12,18:30,0.828,1.208,0.853,1.515,1.086,0.470,0.818,0.775,��쓌,4.5,��
2018/08/12,18:40,0.826,1.211,0.849,1.517,1.085,0.469,0.819,0.776,��쓌,4.1,��
2018/08/12,18:50,0.828,1.211,0.855,1.517,1.085,0.468,0.818,0.774,��쓌,3.7,��
2018/08/12,19:00,0.828,1.212,0.851,1.517,1.086,0.469,0.819,0.775,��,4.0,��
2018/08/12,19:10,0.827,1.211,0.853,1.518,1.085,0.468,0.819,0.775,��,4.0,�L
2018/08/12,19:20,0.827,1.212,0.852,1.515,1.087,0.470,0.819,0.774,��쓌,5.2,�L
2018/08/12,19:30,0.829,1.210,0.853,1.514,1.088,0.469,0.820,0.776,��,5.1,�L
2018/08/12,19:40,0.829,1.211,0.850,1.516,1.086,0.468,0.819,0.775,��,4.9,�L
2018/08/12,19:50,0.828,1.211,0.853,1.515,1.087,0.468,0.818,0.775,��,4.1,�L
2018/08/12,20:00,0.829,1.210,0.853,1.516,1.084,0.468,0.820,0.777,��,5.1,�L
2018/08/12,20:10,0.828,1.211,0.851,1.514,1.084,0.468,0.820,0.777,��,4.9,�L
2018/08/12,20:20,0.827,1.212,0.854,1.517,1.086,0.469,0.821,0.777,��,4.3,�L
2018/08/12,20:30,0.828,1.210,0.853,1.513,1.086,0.471,0.818,0.777,��,4.3,��
2018/08/12,20:40,0.828,1.213,0.852,1.517,1.086,0.469,0.821,0.776,��,4.9,��
2018/08/12,20:50,0.826,1.212,0.854,1.515,1.088,0.469,0.822,0.777,��,3.9,��
2018/08/12,21:00,0.827,1.211,0.854,1.516,1.087,0.469,0.819,0.776,��,4.0,��
2018/08/12,21:10,0.829,1.212,0.851,1.516,1.089,0.469,0.820,0.777,��,3.9,��
2018/08/12,21:20,0.828,1.212,0.853,1.516,1.087,0.469,0.818,0.774,��,3.2,��
2018/08/12,21:30,0.829,1.212,0.851,1.517,1.087,0.470,0.819,0.774,��쓌,2.5,��
2018/08/12,21:40,0.830,1.213,0.854,1.516,1.087,0.469,0.821,0.775,��쓌,4.0,��
2018/08/12,21:50,0.827,1.211,0.850,1.516,1.084,0.469,0.819,0.775,��쓌,4.7,��
2018/08/12,22:00,0.829,1.210,0.853,1.512,1.087,0.468,0.820,0.775,��쓌,4.4,��
2018/08/12,22:10,0.827,1.210,0.852,1.516,1.086,0.468,0.820,0.776,��쓌,2.2,��
2018/08/12,22:20,0.828,1.212,0.850,1.512,1.085,0.468,0.820,0.778,��쓌,3.3,��
2018/08/12,22:30,0.827,1.212,0.850,1.515,1.085,0.470,0.819,0.775,��쓌,3.4,��
2018/08/12,22:40,0.828,1.211,0.852,1.514,1.085,0.470,0.820,0.776,��쓌,3.8,��
2018/08/12,22:50,0.828,1.211,0.850,1.519,1.086,0.468,0.822,0.776,��쓌,4.2,��
2018/08/12,23:00,0.827,1.213,0.852,1.515,1.087,0.469,0.821,0.776,��쓌,3.7,��
2018/08/12,23:10,0.829,1.209,0.853,1.515,1.086,0.469,0.821,0.777,��,3.0,��
2018/08/12,23:20,0.829,1.210,0.852,1.515,1.086,0.469,0.821,0.776,��쓌,2.3,��
2018/08/12,23:30,0.829,1.210,0.851,1.516,1.089,0.471,0.821,0.778,��,2.3,��
2018/08/12,23:40,0.827,1.211,0.852,1.516,1.088,0.471,0.820,0.776,��,1.9,��
2018/08/12,23:50,0.828,1.211,0.851,1.513,1.085,0.469,0.822,0.775,��쐼,1.4,��
